TimeEDT,TemperatureF,Dew PointF,Humidity,Sea Level PressureIn,VisibilityMPH,Wind Direction,Wind SpeedMPH,Gust SpeedMPH,PrecipitationIn,Events,Conditions,WindDirDegrees,DateUTC
12:12 AM,62.6,62.6,100,29.65,10.0,South,10.4,-,0.00,Rain,Light Rain,170,2013-04-20 04:12:00
12:49 AM,62.6,60.8,94,29.63,10.0,South,9.2,-,0.01,Rain,Light Rain,170,2013-04-20 04:49:00
12:51 AM,63.0,61.0,93,29.63,10.0,South,8.1,-,0.01,Rain,Light Rain,170,2013-04-20 04:51:00
1:51 AM,60.1,59.0,96,29.66,3.0,NW,10.4,19.6,0.28,Rain,Rain,320,2013-04-20 05:51:00
2:05 AM,53.6,51.8,94,29.66,4.0,NNW,15.0,-,0.00,Rain,Rain,330,2013-04-20 06:05:00
2:07 AM,53.6,51.8,94,29.65,4.0,NNW,13.8,-,0.00,Rain,Rain,330,2013-04-20 06:07:00
2:45 AM,51.8,48.2,88,29.67,10.0,NW,6.9,-,0.05,Rain,Light Rain,320,2013-04-20 06:45:00
2:51 AM,51.1,48.0,89,29.66,10.0,NNW,6.9,-,0.08,Rain,Light Rain,340,2013-04-20 06:51:00
3:40 AM,48.2,44.6,87,29.68,9.0,North,8.1,-,0.10,Rain,Light Rain,350,2013-04-20 07:40:00
3:51 AM,48.0,45.0,89,29.67,7.0,NNE,10.4,-,0.10,Rain,Light Rain,30,2013-04-20 07:51:00
4:51 AM,45.0,42.1,90,29.72,7.0,NNW,4.6,-,0.15,Rain,Light Rain,340,2013-04-20 08:51:00
5:51 AM,44.1,42.1,93,29.75,9.0,NNW,5.8,-,0.04,,Overcast,330,2013-04-20 09:51:00
6:51 AM,44.1,41.0,89,29.81,6.0,NW,5.8,-,0.00,Rain,Light Rain,310,2013-04-20 10:51:00
7:51 AM,45.0,39.9,82,29.85,10.0,West,3.5,-,0.03,,Overcast,280,2013-04-20 11:51:00
8:51 AM,46.0,37.9,73,29.84,10.0,West,4.6,-,0.03,,Mostly Cloudy,270,2013-04-20 12:51:00
9:51 AM,48.0,39.0,71,29.85,10.0,WNW,4.6,-,N/A,,Mostly Cloudy,300,2013-04-20 13:51:00
10:51 AM,52.0,37.9,59,29.88,10.0,SW,9.2,16.1,0.01,,Mostly Cloudy,230,2013-04-20 14:51:00
11:51 AM,54.0,33.1,45,29.90,10.0,West,18.4,24.2,N/A,,Mostly Cloudy,260,2013-04-20 15:51:00
12:51 PM,55.0,32.0,42,29.91,10.0,West,10.4,-,0.01,,Mostly Cloudy,280,2013-04-20 16:51:00
1:51 PM,54.0,28.0,37,29.91,10.0,West,15.0,20.7,0.03,,Mostly Cloudy,260,2013-04-20 17:51:00
2:51 PM,57.9,27.0,31,29.91,10.0,WNW,10.4,-,N/A,,Mostly Cloudy,290,2013-04-20 18:51:00
3:51 PM,57.9,26.1,30,29.92,10.0,West,12.7,25.3,N/A,,Mostly Cloudy,280,2013-04-20 19:51:00
4:51 PM,57.0,26.1,30,29.95,10.0,West,8.1,-,N/A,,Mostly Cloudy,280,2013-04-20 20:51:00
5:51 PM,57.0,26.1,30,29.99,10.0,NW,11.5,-,N/A,,Mostly Cloudy,320,2013-04-20 21:51:00
6:51 PM,55.9,24.1,29,30.02,10.0,NW,15.0,-,N/A,,Mostly Cloudy,310,2013-04-20 22:51:00
7:51 PM,52.0,26.1,37,30.07,10.0,NW,9.2,-,N/A,,Scattered Clouds,320,2013-04-20 23:51:00
8:51 PM,50.0,24.1,36,30.14,10.0,NNW,15.0,23.0,N/A,,Scattered Clouds,330,2013-04-21 00:51:00
9:51 PM,46.0,26.1,46,30.20,10.0,NNW,10.4,19.6,N/A,,Partly Cloudy,340,2013-04-21 01:51:00
10:51 PM,42.1,23.0,47,30.24,10.0,NW,20.7,28.8,0.01,,Scattered Clouds,320,2013-04-21 02:51:00
11:51 PM,39.9,21.0,47,30.27,10.0,NW,18.4,33.4,N/A,,Scattered Clouds,320,2013-04-21 03:51:00